CAPE
0 0 0 0 0 0 0 0 0 0 0 0 0 0 0 0 0 0 0 0 0 0 0 0 0 10 12 17 12 52 14 0 0 0 1 0 1 0 0 1 4 5 16
0 0 0 0 0 0 0 0 0 0 0 0 0 0 0 0 0 0 0 0 0 0 0 0 0 0 19 12 9 1 2 0 0 0 0 0 0 2 0 0 0 0 0
0 0 0 0 0 0 0 0 0 0 0 0 0 0 0 0 0 0 0 0 0 0 0 0 0 0 5 19 10 12 1 4 0 0 0 0 5 0 1 0 0 0 4
0 0 0 0 0 0 0 0 0 0 0 0 0 0 0 0 0 0 0 0 0 0 0 0 0 0 1 11 16 12 23 8 1 0 1 0 0 5 0 1 1 1 0
0 0 0 0 0 0 0 0 0 0 0 0 0 0 0 0 0 0 0 0 0 0 0 0 0 0 0 0 17 19 20 27 18 7 0 0 0 0 0 0 0 1 1
0 0 0 0 0 0 0 0 0 0 0 0 0 0 0 0 0 0 0 0 1 1 0 0 0 0 0 0 0 3 34 24 22 11 3 6 0 0 0 0 0 0 1
0 0 0 0 0 0 0 0 0 0 0 0 0 0 0 0 0 0 0 0 1 0 0 0 0 0 0 0 0 0 9 20 19 16 3 0 0 0 0 0 0 0 1
0 0 0 0 0 0 0 0 0 0 0 0 0 0 0 0 0 0 0 0 0 0 0 0 0 1 1 0 4 18 4 15 23 21 17 3 0 0 0 2 0 0 0
0 0 0 0 0 0 0 0 0 0 0 0 0 0 0 0 0 0 0 0 0 0 0 0 0 1 1 2 3 22 15 25 19 40 34 16 4 0 0 0 0 0 0
0 0 0 0 0 0 0 0 0 0 0 0 0 0 0 0 0 0 0 0 0 0 0 1 2 2 2 0 3 24 28 25 27 37 30 18 1 5 0 0 0 1 0
0 0 0 0 0 0 0 0 0 0 0 0 0 0 0 0 0 0 0 0 0 0 1 2 2 2 3 2 3 23 32 30 35 38 23 19 3 11 1 0 0 0 0
0 0 0 0 0 0 0 0 0 0 0 0 0 0 0 0 0 0 0 0 0 0 3 2 2 2 3 3 10 22 48 47 36 25 27 3 10 5 0 0 2 0 0
0 0 0 0 0 0 0 0 0 0 0 0 0 0 0 0 0 0 0 0 0 0 1 1 2 2 3 2 7 22 30 41 36 15 19 27 0 0 1 0 0 0 0
0 0 0 0 0 0 0 0 0 0 0 0 0 0 0 0 0 0 0 0 0 0 2 2 3 3 3 2 8 16 19 5 10 14 2 6 1 1 0 0 0 0 0
0 0 0 0 0 0 0 0 0 0 0 0 0 0 0 0 0 0 0 0 0 0 5 1 2 3 2 2 3 8 1 1 5 1 0 0 0 1 0 0 0 0 0
0 0 0 0 0 0 0 0 0 0 0 0 0 0 0 0 0 0 0 0 0 2 3 2 2 2 2 2 2 4 0 1 2 0 0 0 0 0 0 0 0 0 0
0 0 0 0 0 0 0 0 0 0 0 0 0 0 0 0 0 0 0 0 0 1 1 1 2 2 2 3 1 1 0 0 1 0 0 0 0 0 0 1 1 1 1
0 0 0 0 0 0 0 0 0 0 0 0 0 0 0 0 0 0 0 0 0 1 1 2 1 2 2 2 1 1 0 0 0 0 0 0 0 0 1 0 0 0 0
0 0 0 0 0 0 0 0 0 0 0 0 0 0 0 0 0 0 0 0 0 2 1 2 2 2 1 0 1 0 0 0 0 0 0 0 1 1 1 0 1 1 2
0 0 0 0 0 0 0 0 0 0 0 0 0 0 0 0 0 0 0 0 0 2 2 1 2 3 0 0 1 0 0 0 0 1 1 1 2 5 2 0 0 1 3
0 0 0 0 0 0 0 0 0 0 0 0 0 0 0 0 0 0 0 0 1 1 0 0 1 0 0 2 3 2 1 1 2 2 3 2 5 5 3 0 0 1 0
0 0 0 0 0 0 0 0 0 0 0 0 1 0 0 0 0 0 0 0 0 1 0 0 0 1 0 1 2 4 1 3 1 3 2 2 4 4 5 0 5 3 0
0 0 0 0 0 0 0 0 0 0 0 0 0 0 0 0 0 0 0 2 0 1 0 0 0 0 1 2 3 4 4 3 2 2 2 4 4 5 6 7 5 0 0
0 0 0 0 0 0 0 0 0 0 0 1 1 0 0 0 0 0 1 1 0 0 0 0 0 0 0 0 2 2 2 4 2 3 1 2 2 3 3 2 0 0 0
0 0 0 0 0 0 0 0 0 0 0 1 1 2 0 0 0 0 1 0 0 0 0 0 0 0 0 0 0 0 1 2 2 1 0 1 1 0 0 0 0 0 0
0 0 0 0 0 0 0 0 0 0 0 1 1 1 1 0 0 1 0 1 0 1 1 1 0 0 1 1 1 1 1 3 3 1 1 1 1 0 0 0 0 0 0
CIN
0 0 0 0 0 0 0 0 0 0 0 0 0 0 0 0 0 0 0 0 0 0 0 0 0 -20 -8 -10 -15 -20 -13 0 0 0 0 0 0 0 0 -57 -76 -74 -70
0 0 0 0 0 0 0 0 0 0 0 0 0 0 0 0 0 0 0 0 0 0 0 0 0 0 -16 -11 -11 -1 -56 0 0 0 0 0 -3 0 0 0 0 0 0
0 0 0 0 0 0 0 0 0 0 0 0 0 0 0 0 0 0 0 0 0 0 0 0 0 0 -28 -22 -33 -21 -7 -9 0 0 0 0 -5 0 0 0 0 0 -33
0 0 0 0 0 0 0 0 0 0 0 0 0 0 0 0 0 0 0 0 0 0 0 0 0 0 -8 -18 -29 -36 -30 -13 -2 0 -64 0 0 -44 0 0 0 0 0
0 0 0 0 0 0 0 0 0 0 0 0 0 0 0 0 0 0 0 0 0 0 0 0 0 0 0 0 -14 -24 -37 -37 -5 -4 -2 0 0 0 0 0 0 0 0
0 0 0 0 0 0 0 0 0 0 0 0 0 0 0 0 0 0 0 0 0 0 0 0 0 0 0 0 0 -14 -12 -22 -15 -6 -25 -37 0 0 0 0 0 0 0
0 0 0 0 0 0 0 0 0 0 0 0 0 0 0 0 0 0 0 0 -2 0 0 0 0 0 0 0 0 0 -38 -29 -8 -13 -22 -10 -20 -23 0 0 0 0 0
0 0 0 0 0 0 0 0 0 0 0 0 0 0 0 0 0 0 0 0 0 -1 0 0 0 0 0 -3 -54 -25 -24 -27 -17 -8 -15 -32 -6 0 -5 -12 0 0 0
0 0 0 0 0 0 0 0 0 0 0 0 0 0 0 0 0 0 0 0 0 0 0 -1 0 0 0 0 -35 -19 -18 -25 -17 -4 -15 -34 -60 -9 -19 0 -31 0 0
0 0 0 0 0 0 0 0 0 0 0 0 0 0 0 0 0 0 0 0 0 0 0 0 0 0 0 0 0 -14 -18 -17 -25 -17 -19 -26 -15 -54 -13 -33 0 -25 -17
0 0 0 0 0 0 0 0 0 0 0 0 0 0 0 0 0 0 0 0 0 0 0 0 0 0 0 0 0 -5 -8 -15 -26 -32 -38 -42 -80 -72 -31 0 0 0 0
0 0 0 0 0 0 0 0 0 0 0 0 0 0 0 0 0 0 0 0 0 0 0 0 0 0 0 0 -4 -1 0 -6 -18 -33 -37 -52 -87 -79 0 0 -55 0 0
0 0 0 0 0 0 0 0 0 0 0 0 0 0 0 0 0 0 0 0 0 0 0 0 0 0 0 0 -2 0 -4 -5 -10 -23 -51 -68 0 -58 -52 0 0 0 0
0 0 0 0 0 0 0 0 0 0 0 0 0 0 0 0 0 0 0 0 0 0 -1 0 0 0 0 0 -2 -3 -3 -7 -13 -22 -28 -66 -41 -81 0 0 -37 0 0
0 0 0 0 0 0 0 0 0 0 0 0 0 0 0 0 0 0 0 0 0 -1 0 0 0 0 0 0 0 -4 -7 -13 -11 -10 -5 0 0 -56 0 0 0 0 0
0 0 0 0 0 0 0 0 0 0 0 0 0 0 0 0 0 0 0 0 0 -2 0 0 0 0 0 0 0 -4 -6 -13 -14 -19 0 0 -43 0 0 0 0 0 0
0 0 0 0 0 0 0 0 0 0 0 0 0 0 0 0 0 0 0 0 0 -1 0 0 0 0 0 0 0 0 -11 0 -25 -2 0 0 0 0 0 0 0 0 0
0 0 0 0 0 0 0 0 0 0 0 0 0 0 0 0 0 0 0 0 0 0 0 0 0 0 0 0 0 0 0 0 0 -1 0 0 0 0 0 0 0 0 0
0 0 0 0 0 0 0 0 0 0 0 0 0 0 0 0 0 0 0 0 0 0 0 0 0 0 0 0 0 0 0 0 0 0 0 0 0 0 0 0 0 0 0
0 0 0 0 0 0 0 0 0 0 0 0 0 0 0 0 0 0 0 0 0 0 0 0 0 0 0 0 0 0 0 0 0 0 0 0 0 0 0 0 0 0 0
0 0 0 0 0 0 0 0 0 0 0 0 0 0 0 0 0 0 0 0 0 0 0 0 0 0 0 0 0 0 0 0 0 0 0 0 0 0 0 0 0 0 0
0 0 0 0 0 0 0 0 0 0 0 0 0 0 0 0 0 0 0 0 0 0 0 0 0 0 0 0 0 0 0 0 0 0 0 0 0 0 0 0 0 0 0
0 0 0 0 0 0 0 0 0 0 0 0 0 0 0 0 0 0 0 0 0 0 0 0 0 0 0 0 0 0 0 0 0 0 0 0 0 0 0 0 0 0 0
0 0 0 0 0 0 0 0 0 0 0 0 0 0 0 0 0 0 0 0 0 0 0 0 0 0 0 0 0 0 0 0 0 0 0 0 0 0 0 0 0 0 0
0 0 0 0 0 0 0 0 0 0 0 0 0 0 0 0 0 0 0 0 0 0 0 0 0 0 0 0 0 0 0 0 0 0 0 0 0 0 0 0 0 0 0
0 0 0 0 0 0 0 0 0 0 0 0 0 0 0 0 0 0 0 0 0 0 0 0 0 0 0 0 0 0 0 0 0 0 0 0 0 0 0 0 0 0 0
Wind_Speed
14 13 15 17 19 23 24 25 26 28 29 30 32 32 34 32 33 33 33 32 32 32 31 30 28 26 25 22 20 23 21 20 17 23 25 24 26 18 14 14 12 13 12
13 15 16 19 21 23 25 27 28 29 30 31 33 32 34 32 32 35 34 34 34 33 32 33 32 29 26 25 23 21 23 25 22 26 25 27 27 22 18 18 14 15 15
13 15 17 20 22 25 27 28 29 30 31 33 33 34 34 35 34 37 36 35 36 35 34 33 32 32 28 27 25 23 23 25 24 23 24 24 25 26 27 20 20 15 16
15 16 19 22 24 26 27 29 30 30 32 34 35 36 36 38 37 39 38 38 36 36 34 33 32 31 30 29 27 25 23 25 27 26 24 24 21 25 28 26 23 24 23
17 19 21 23 25 26 27 28 30 31 33 34 35 37 37 37 37 38 39 37 36 35 34 33 32 31 30 30 29 27 25 25 28 28 28 26 24 27 26 30 27 29 26
19 21 22 23 24 26 28 30 31 32 34 36 36 38 39 39 39 39 38 37 37 35 35 33 34 33 33 32 31 29 27 26 26 27 29 30 31 31 27 30 31 29 29
20 22 24 25 27 28 30 31 33 35 36 37 38 39 39 39 39 39 38 39 39 37 36 36 36 36 35 34 33 32 31 30 29 28 30 32 30 29 28 29 29 29 27
22 24 26 28 30 31 32 33 35 37 38 39 40 39 39 39 39 39 39 38 38 38 38 37 37 36 35 36 35 33 33 32 31 31 29 30 30 30 29 29 26 30 29
24 27 30 30 31 32 33 35 37 38 40 41 40 41 41 40 40 41 39 38 38 39 40 38 37 36 35 37 36 34 34 34 33 31 30 30 29 29 30 29 29 28 30
25 30 33 32 32 33 35 38 39 40 42 42 43 44 44 42 40 40 41 40 39 40 40 39 37 36 36 38 36 35 34 34 34 32 31 29 28 26 26 25 24 26 28
31 32 33 33 36 38 39 41 41 44 44 44 45 45 44 42 40 41 41 39 38 39 40 38 37 37 37 38 35 36 35 33 31 31 30 29 27 27 26 26 26 25 23
31 32 36 39 41 43 43 43 44 45 46 46 46 46 44 43 42 41 40 38 38 38 38 39 38 39 38 38 35 35 34 32 31 30 29 29 28 27 26 25 25 25 24
33 35 39 42 44 45 46 46 46 47 45 46 46 45 44 43 42 42 40 38 38 40 40 41 40 39 39 39 38 33 33 32 29 27 26 26 25 25 24 24 24 23 21
35 38 42 45 45 46 45 45 46 45 46 46 46 46 46 43 41 40 39 38 39 41 39 41 41 40 41 39 35 29 28 30 29 25 25 24 24 24 22 22 20 20 20
38 41 44 46 47 46 45 47 46 46 45 45 44 44 43 40 39 39 39 40 41 41 40 42 42 41 40 39 37 29 28 28 27 25 23 24 22 22 21 19 20 19 20
42 43 44 45 46 45 46 47 46 45 43 42 42 41 39 39 38 37 38 40 42 41 40 41 41 41 39 39 36 26 26 22 24 25 21 20 19 20 18 19 17 15 16
42 43 44 44 44 46 46 47 45 43 41 41 41 40 39 39 38 38 40 41 41 40 41 41 40 39 38 37 34 33 24 21 19 18 18 15 15 14 14 14 13 11 12
42 43 43 43 44 44 43 41 40 40 39 39 39 39 39 39 40 39 40 41 39 38 39 39 38 37 36 35 33 29 21 15 14 15 12 11 11 10 8 7 7 11 11
40 40 41 42 43 42 38 39 39 38 37 38 39 39 38 41 40 40 40 39 37 37 37 37 36 35 35 34 31 20 17 15 16 16 11 7 7 5 3 4 5 7 8
40 42 43 42 39 37 37 38 37 38 38 39 39 37 42 41 39 37 40 37 35 35 35 34 33 32 32 31 15 15 13 14 15 15 12 10 7 5 3 2 1 1 2
41 42 41 38 36 36 37 36 37 37 38 38 37 36 41 36 31 37 35 33 33 33 32 30 27 23 18 15 17 14 12 14 13 12 9 6 4 3 2 1 2 2 4
44 41 38 36 36 35 33 35 36 37 38 38 38 30 39 30 31 32 31 30 30 30 29 26 23 19 18 17 17 15 11 12 10 8 7 5 4 3 2 1 4 4 4
40 38 36 37 36 34 33 33 35 38 37 38 44 40 35 27 30 28 28 28 28 28 27 25 24 21 19 17 13 9 6 7 7 6 5 5 3 4 4 5 4 1 2
39 37 38 37 36 35 33 33 35 34 34 41 41 37 35 30 27 26 26 26 26 26 24 23 22 19 16 15 11 6 4 5 6 8 5 4 4 3 4 1 1 2 3
36 37 36 36 36 36 34 35 34 33 35 41 38 33 30 27 27 26 25 25 26 24 23 21 19 15 15 12 7 6 5 6 8 7 4 4 4 2 1 1 2 3 3
36 36 36 36 37 36 35 36 33 34 33 41 33 29 27 26 26 25 25 24 24 24 22 19 16 14 7 2 1 4 7 9 8 5 6 4 3 2 2 2 1 2 2
Wind_Direction
338 349 345 340 337 337 337 334 331 330 330 327 324 324 322 324 323 321 320 320 317 311 308 307 305 301 294 289 284 286 279 279 280 292 289 281 277 269 265 265 256 254 251
340 339 340 342 340 337 335 332 330 328 328 328 327 327 322 324 323 322 319 316 313 311 308 302 299 299 295 292 286 281 279 281 282 285 285 278 279 269 266 267 259 255 261
348 346 343 341 340 337 334 333 330 327 328 328 327 326 324 322 322 321 320 318 313 308 306 303 299 296 293 289 288 283 277 275 280 276 281 280 273 275 268 258 266 257 261
354 347 341 338 337 334 333 333 332 330 328 328 327 326 324 321 321 319 318 316 313 308 305 304 301 296 293 288 285 285 279 278 276 275 273 277 283 273 270 265 263 272 264
351 344 340 338 338 337 336 334 334 333 331 328 327 325 322 322 321 320 318 317 315 312 307 303 300 297 294 289 286 284 279 277 275 271 272 269 274 269 275 274 268 264 265
349 344 341 339 338 338 336 332 331 332 331 329 325 323 320 319 318 319 319 319 315 313 310 305 300 296 293 288 285 284 280 278 273 272 265 267 267 266 272 274 273 268 266
346 340 337 337 335 334 333 331 328 326 324 323 323 322 321 320 319 318 319 317 317 313 310 307 300 294 292 289 284 280 280 278 273 269 268 267 266 267 271 273 275 273 274
343 340 335 332 329 329 329 329 327 324 324 322 321 322 321 320 319 317 317 316 316 315 311 306 301 296 292 289 285 281 276 276 274 270 267 268 266 264 267 266 274 273 275
338 334 331 331 328 328 329 328 326 322 321 321 322 321 320 319 316 316 316 315 315 314 312 307 303 299 294 289 283 279 275 272 271 270 267 266 267 267 266 267 269 270 270
339 334 330 329 330 330 329 325 325 321 321 320 320 318 317 318 317 316 314 313 313 313 312 310 305 300 295 289 281 276 273 271 268 268 266 265 265 265 265 266 269 271 272
338 333 330 329 324 323 325 323 321 319 319 319 318 317 316 316 316 315 314 314 314 314 312 313 308 298 294 288 278 274 270 269 268 265 264 263 263 263 265 267 270 267 274
337 335 328 323 321 318 320 321 320 318 318 318 317 316 315 316 315 315 315 315 313 313 312 310 306 294 289 286 277 273 268 267 267 264 261 262 262 262 265 266 266 270 272
336 333 328 324 321 319 319 319 320 319 320 318 316 316 316 316 315 315 315 315 313 308 305 306 301 292 285 281 277 270 267 266 266 263 259 260 260 261 264 265 266 268 273
336 332 326 322 321 322 323 323 321 321 319 318 317 316 315 317 317 316 314 312 310 305 302 301 294 288 278 274 275 272 270 267 264 263 263 261 260 259 262 264 262 268 273
334 332 327 324 323 325 325 323 323 322 322 321 321 320 320 321 319 317 313 308 304 301 297 293 289 286 272 268 269 272 270 270 262 262 264 261 261 260 260 263 266 269 270
332 330 328 327 328 329 327 325 323 324 325 325 324 324 324 324 321 319 314 307 298 294 291 288 284 282 267 264 266 271 272 267 267 258 262 262 259 261 265 267 262 267 269
334 332 331 331 330 328 326 324 325 328 329 328 327 326 325 323 321 318 311 302 290 286 284 282 280 276 267 263 266 258 268 267 266 255 259 258 261 264 266 266 273 276 281
335 334 334 333 332 330 330 332 333 332 332 331 329 328 325 322 317 313 309 296 285 279 281 279 278 272 262 257 257 262 263 265 263 253 253 252 258 260 257 271 277 286 291
337 337 337 335 333 334 337 336 335 335 335 334 331 329 326 317 315 311 306 286 279 277 277 276 274 268 258 256 260 265 263 261 261 257 258 250 246 238 226 264 277 297 312
339 337 336 337 340 341 339 338 338 337 336 334 333 331 317 314 316 315 290 278 273 274 274 275 274 265 255 254 267 267 263 257 256 256 256 251 250 212 217 251 173 354 15
338 338 340 342 342 342 341 340 339 338 337 336 335 332 312 321 326 303 278 272 271 273 273 275 273 271 273 275 271 272 261 254 259 244 242 239 182 203 198 172 256 119 100
337 341 344 345 345 344 344 342 341 340 338 337 336 338 312 332 322 277 271 269 270 268 269 273 272 273 281 283 276 272 264 250 238 230 223 203 168 154 165 156 117 112 81
342 346 347 346 346 347 346 344 343 341 341 338 320 308 321 336 277 269 268 269 269 266 267 263 262 268 279 280 281 271 245 228 225 216 167 140 145 126 124 113 110 88 53
345 347 347 348 347 348 347 346 345 346 345 335 311 302 307 285 275 272 268 267 268 268 263 262 263 271 283 274 272 251 226 165 140 126 127 132 131 123 120 107 23 21 36
348 348 349 348 348 347 346 345 347 349 345 333 303 293 286 277 274 272 267 267 269 264 259 258 268 280 273 268 257 231 174 154 136 135 148 161 180 176 139 74 57 41 17
349 349 349 349 348 347 346 345 351 351 350 323 300 289 281 276 275 272 272 275 271 257 254 263 273 277 294 277 182 146 132 129 135 156 142 172 186 177 127 104 72 347 23